| time (UTC) | temp C | wind direction | speed KPH | gust KPH | rain 1hr cm | rain 24hr cm | rain mn cm | humidity % | barometer mb |
| 20260502170218 | 16 | 0.0 | 3.2 | 0.00 | 0.00 | 0.00 | 25 | 1024.2 | |
| 20260502164237 | 15 | 90 | 1.6 | 4.8 | 0.00 | 0.00 | 0.00 | 23 | 1023.8 |
| 20260502163217 | 15 | 23 | 3.2 | 12.9 | 0.00 | 0.00 | 0.00 | 22 | 1023.7 |
| 20260502162217 | 15 | 68 | 3.2 | 6.4 | 0.00 | 0.00 | 0.00 | 24 | 1023.8 |
| 20260502161217 | 15 | 0.0 | 1.6 | 0.00 | 0.00 | 0.00 | 21 | 1023.7 | |
| 20260502160217 | 15 | 90 | 1.6 | 4.8 | 0.00 | 0.00 | 0.00 | 20 | 1024.2 |
| 20260502152217 | 12 | 45 | 1.6 | 3.2 | 0.00 | 0.00 | 0.00 | 23 | 1023.3 |
| 20260502151217 | 11 | 0.0 | 0.0 | 0.00 | 0.00 | 0.00 | 22 | 1022.8 | |
| 20260502150217 | 11 | 0.0 | 3.2 | 0.00 | 0.00 | 0.00 | 22 | 1022.6 | |
| 20260502130220 | 0 | 0.0 | 0.0 | 0.00 | 0.00 | 0.00 | 46 | 1018.1 | |
| 20260502123219 | 0 | 0.0 | 0.0 | 0.00 | 0.00 | 0.00 | 46 | 1017.6 | |
| 20260502122219 | 0 | 0.0 | 0.0 | 0.00 | 0.00 | 0.00 | 46 | 1017.3 | |
| 20260502121218 | 0 | 0.0 | 0.0 | 0.00 | 0.00 | 0.00 | 46 | 1017.3 | |
| 20260502120218 | 0 | 0.0 | 0.0 | 0.00 | 0.00 | 0.00 | 46 | 1017.7 | |
| 20260502115239 | 0 | 0.0 | 0.0 | 0.00 | 0.00 | 0.00 | 46 | 1017.7 | |
| 20260502114218 | 1 | 0.0 | 0.0 | 0.00 | 0.00 | 0.00 | 46 | 1017.7 | |
| 20260502113239 | 1 | 0.0 | 0.0 | 0.00 | 0.00 | 0.00 | 45 | 1018.6 | |
| 20260502112218 | 1 | 0.0 | 0.0 | 0.00 | 0.00 | 0.00 | 46 | 1018.7 | |
| 20260502111239 | 2 | 0.0 | 0.0 | 0.00 | 0.00 | 0.00 | 44 | 1018.7 | |
| 20260502110219 | 2 | 0.0 | 0.0 | 0.00 | 0.00 | 0.00 | 43 | 1019.3 | |
| 20260502105219 | 3 | 0.0 | 0.0 | 0.00 | 0.00 | 0.00 | 42 | 1019.2 | |
| 20260502104240 | 4 | 0.0 | 0.0 | 0.00 | 0.00 | 0.00 | 40 | 1019.6 | |
| 20260502103218 | 5 | 0.0 | 0.0 | 0.00 | 0.00 | 0.00 | 38 | 1020.1 | |
| 20260502102218 | 5 | 0.0 | 0.0 | 0.00 | 0.00 | 0.00 | 38 | 1020.1 | |
| 20260502101218 | 5 | 0.0 | 0.0 | 0.00 | 0.00 | 0.00 | 36 | 1020.1 | |
| 20260502100218 | 6 | 0.0 | 0.0 | 0.00 | 0.00 | 0.00 | 35 | 1020.4 | |
| 20260502091218 | 5 | 293 | 3.2 | 4.8 | 0.00 | 0.00 | 0.00 | 33 | 1019.5 |
| 20260502090218 | 5 | 0.0 | 0.0 | 0.00 | 0.00 | 0.00 | 35 | 1019.5 | |
| 20260502071218 | 7 | 0.0 | 0.0 | 0.00 | 0.00 | 0.00 | 37 | 1021.4 | |
| 20260502070327 | 7 | 0.0 | 0.0 | 0.00 | 0.00 | 0.00 | 36 | 1021.3 | |
| 20260502065217 | 8 | 0.0 | 0.0 | 0.00 | 0.00 | 0.00 | 35 | 1021.4 | |
| 20260502064217 | 8 | 0.0 | 0.0 | 0.00 | 0.00 | 0.00 | 34 | 1021.7 | |
| 20260502063217 | 8 | 0.0 | 0.0 | 0.00 | 0.00 | 0.00 | 34 | 1021.2 | |
| 20260502062217 | 8 | 338 | 1.6 | 3.2 | 0.00 | 0.00 | 0.00 | 33 | 1021.1 |
| 20260502061217 | 8 | 0.0 | 0.0 | 0.00 | 0.00 | 0.00 | 33 | 1021.0 | |
| 20260502060217 | 8 | 0.0 | 0.0 | 0.00 | 0.00 | 0.00 | 34 | 1021.4 | |
| 20260502055218 | 8 | 338 | 3.2 | 8.0 | 0.00 | 0.00 | 0.00 | 35 | 1020.9 |
| 20260502054217 | 8 | 315 | 1.6 | 3.2 | 0.00 | 0.00 | 0.00 | 36 | 1020.9 |
| 20260502053217 | 8 | 315 | 3.2 | 4.8 | 0.00 | 0.00 | 0.00 | 37 | 1020.9 |
| 20260502052219 | 8 | 315 | 1.6 | 3.2 | 0.00 | 0.00 | 0.00 | 37 | 1020.8 |
| 20260502051217 | 8 | 0.0 | 0.0 | 0.00 | 0.00 | 0.00 | 37 | 1020.6 | |
| 20260502050217 | 8 | 0.0 | 0.0 | 0.00 | 0.00 | 0.00 | 37 | 1019.6 | |
| 20260502045217 | 8 | 0.0 | 0.0 | 0.00 | 0.00 | 0.00 | 36 | 1020.0 | |
| 20260502044217 | 8 | 0.0 | 0.0 | 0.00 | 0.00 | 0.00 | 35 | 1019.9 | |
| 20260502043238 | 9 | 0.0 | 0.0 | 0.00 | 0.00 | 0.00 | 35 | 1019.7 | |
| 20260502042237 | 9 | 0.0 | 0.0 | 0.00 | 0.00 | 0.00 | 34 | 1019.7 | |
| 20260502041217 | 9 | 0.0 | 0.0 | 0.00 | 0.00 | 0.00 | 35 | 1019.7 | |
| 20260502040217 | 9 | 0.0 | 1.6 | 0.00 | 0.00 | 0.00 | 35 | 1019.0 | |
| 20260502035217 | 10 | 338 | 3.2 | 4.8 | 0.00 | 0.00 | 0.00 | 36 | 1018.9 |
| 20260502034217 | 10 | 338 | 1.6 | 3.2 | 0.00 | 0.00 | 0.00 | 36 | 1018.8 |
| 20260502033217 | 10 | 315 | 6.4 | 12.9 | 0.00 | 0.00 | 0.00 | 36 | 1018.7 |
| 20260502032219 | 10 | 338 | 3.2 | 4.8 | 0.00 | 0.00 | 0.00 | 35 | 1018.6 |
| 20260502031217 | 10 | 315 | 3.2 | 4.8 | 0.00 | 0.00 | 0.00 | 35 | 1018.4 |
| 20260502030217 | 10 | 338 | 4.8 | 8.0 | 0.00 | 0.00 | 0.00 | 34 | 1017.7 |
| 20260502025217 | 11 | 338 | 8.0 | 9.7 | 0.00 | 0.00 | 0.00 | 33 | 1017.6 |
| 20260502024217 | 11 | 338 | 4.8 | 11.3 | 0.00 | 0.00 | 0.00 | 33 | 1017.9 |
| 20260502023217 | 11 | 0.0 | 0.0 | 0.00 | 0.00 | 0.00 | 33 | 1016.9 | |
| 20260502022217 | 11 | 0 | 3.2 | 4.8 | 0.00 | 0.00 | 0.00 | 32 | 1016.6 |
| 20260502021217 | 11 | 23 | 1.6 | 4.8 | 0.00 | 0.00 | 0.00 | 31 | 1016.3 |
| 20260502020217 | 12 | 0 | 9.7 | 19.3 | 0.00 | 0.00 | 0.00 | 30 | 1016.2 |
| 20260502015217 | 12 | 23 | 6.4 | 17.7 | 0.00 | 0.00 | 0.00 | 29 | 1016.2 |
| 20260502014237 | 12 | 23 | 6.4 | 9.7 | 0.00 | 0.00 | 0.00 | 29 | 1016.3 |
| 20260502013218 | 12 | 23 | 6.4 | 12.9 | 0.00 | 0.00 | 0.00 | 29 | 1016.0 |
| 20260502012216 | 13 | 0.0 | 1.6 | 0.00 | 0.00 | 0.00 | 28 | 1016.0 | |
| 20260502011217 | 13 | 23 | 8.0 | 12.9 | 0.00 | 0.00 | 0.00 | 28 | 1015.7 |
| 20260502010238 | 13 | 315 | 8.0 | 11.3 | 0.00 | 0.00 | 0.00 | 28 | 1015.5 |
| 20260502005238 | 13 | 23 | 4.8 | 8.0 | 0.00 | 0.00 | 0.00 | 27 | 1015.4 |
| 20260502004216 | 13 | 338 | 6.4 | 12.9 | 0.00 | 0.00 | 0.00 | 26 | 1015.3 |
| 20260502003219 | 14 | 315 | 9.7 | 16.1 | 0.00 | 0.00 | 0.00 | 25 | 1015.6 |
| 20260502002219 | 14 | 0.0 | 0.0 | 0.00 | 0.00 | 0.00 | 24 | 1015.4 | |
| 20260502001218 | 14 | 0 | 4.8 | 11.3 | 0.00 | 0.00 | 0.00 | 24 | 1015.3 |
| 20260502000219 | 15 | 0.0 | 1.6 | 0.00 | 0.00 | 0.00 | 24 | 1014.7 | |
| 20260501235219 | 15 | 0.0 | 0.0 | 0.00 | 0.00 | 0.00 | 25 | 1014.6 | |
| 20260501234218 | 15 | 90 | 1.6 | 6.4 | 0.00 | 0.00 | 0.00 | 25 | 1014.5 |
| 20260501233219 | 15 | 68 | 1.6 | 4.8 | 0.00 | 0.00 | 0.00 | 25 | 1014.0 |
| 20260501232219 | 15 | 23 | 6.4 | 14.5 | 0.00 | 0.00 | 0.00 | 25 | 1013.9 |
| 20260501231218 | 15 | 158 | 6.4 | 11.3 | 0.00 | 0.00 | 0.00 | 24 | 1014.1 |
| 20260501230218 | 16 | 0.0 | 1.6 | 0.00 | 0.00 | 0.00 | 23 | 1013.4 | |
| 20260501225218 | 16 | 0.0 | 0.0 | 0.00 | 0.00 | 0.00 | 23 | 1013.4 | |
| 20260501224239 | 16 | 0.0 | 1.6 | 0.00 | 0.00 | 0.00 | 23 | 1013.4 | |
| 20260501223300 | 16 | 23 | 4.8 | 11.3 | 0.00 | 0.00 | 0.00 | 23 | 1013.9 |
| 20260501222218 | 16 | 0.0 | 1.6 | 0.00 | 0.00 | 0.00 | 24 | 1014.0 | |
| 20260501221218 | 16 | 90 | 1.6 | 3.2 | 0.00 | 0.00 | 0.00 | 23 | 1014.1 |
| 20260501220218 | 16 | 0.0 | 0.0 | 0.00 | 0.00 | 0.00 | 24 | 1014.5 | |
| 20260501215221 | 16 | 0.0 | 0.0 | 0.00 | 0.00 | 0.00 | 24 | 1014.8 | |
| 20260501214218 | 16 | 180 | 3.2 | 4.8 | 0.00 | 0.00 | 0.00 | 22 | 1015.0 |
| 20260501213220 | 16 | 0.0 | 0.0 | 0.00 | 0.00 | 0.00 | 24 | 1015.5 | |
| 20260501212218 | 15 | 315 | 4.8 | 4.8 | 0.00 | 0.00 | 0.00 | 25 | 1015.7 |
| 20260501211218 | 15 | 0.0 | 3.2 | 0.00 | 0.00 | 0.00 | 25 | 1015.4 | |
| 20260501210238 | 15 | 90 | 1.6 | 4.8 | 0.00 | 0.00 | 0.00 | 25 | 1016.0 |
| 20260501205218 | 15 | 23 | 6.4 | 9.7 | 0.00 | 0.00 | 0.00 | 25 | 1016.0 |
| 20260501204219 | 15 | 315 | 4.8 | 9.7 | 0.00 | 0.00 | 0.00 | 24 | 1016.0 |
| 20260501203218 | 15 | 315 | 4.8 | 8.0 | 0.00 | 0.00 | 0.00 | 25 | 1016.1 |
| 20260501202218 | 15 | 0.0 | 1.6 | 0.00 | 0.00 | 0.00 | 24 | 1016.1 | |
| 20260501201218 | 15 | 0 | 3.2 | 4.8 | 0.00 | 0.00 | 0.00 | 24 | 1016.0 |
| 20260501200239 | 15 | 338 | 8.0 | 12.9 | 0.00 | 0.00 | 0.00 | 26 | 1016.1 |
| 20260501195219 | 14 | 338 | 6.4 | 8.0 | 0.00 | 0.00 | 0.00 | 26 | 1016.1 |
| 20260501194219 | 14 | 293 | 8.0 | 12.9 | 0.00 | 0.00 | 0.00 | 25 | 1016.1 |
| 20260501193218 | 15 | 293 | 9.7 | 16.1 | 0.00 | 0.00 | 0.00 | 25 | 1016.5 |
| 20260501192218 | 15 | 315 | 8.0 | 12.9 | 0.00 | 0.00 | 0.00 | 22 | 1017.0 |
| 20260501191218 | 16 | 0 | 1.6 | 4.8 | 0.00 | 0.00 | 0.00 | 23 | 1017.1 |
| 20260501190218 | 16 | 23 | 4.8 | 8.0 | 0.00 | 0.00 | 0.00 | 22 | 1017.9 |
| 20260501185218 | 16 | 338 | 9.7 | 16.1 | 0.00 | 0.00 | 0.00 | 23 | 1018.1 |
| 20260501184219 | 15 | 338 | 4.8 | 6.4 | 0.00 | 0.00 | 0.00 | 22 | 1017.9 |
| 20260501183218 | 15 | 338 | 9.7 | 16.1 | 0.00 | 0.00 | 0.00 | 22 | 1017.9 |
| 20260501182218 | 16 | 225 | 4.8 | 6.4 | 0.00 | 0.00 | 0.00 | 21 | 1018.3 |
| 20260501181238 | 15 | 90 | 3.2 | 4.8 | 0.00 | 0.00 | 0.00 | 23 | 1017.9 |
| 20260501180218 | 15 | 338 | 1.6 | 6.4 | 0.00 | 0.00 | 0.00 | 24 | 1018.0 |
| 20260501175218 | 15 | 338 | 8.0 | 12.9 | 0.00 | 0.00 | 0.00 | 22 | 1018.1 |
| 20260501174238 | 15 | 248 | 4.8 | 6.4 | 0.00 | 0.00 | 0.00 | 22 | 1018.0 |